SCP
0 0 0 0 1 1 0 0 0 0 0 0 0 0 0 0 0 0 0 0 0 0 0 0 0 0 0 1 0 0 0 0 0 0 0 0 0 0 0 0 0 0 0 0 0 0 0
0 0 0 0 0 1 1 0 0 0 0 0 0 0 0 0 0 0 0 0 0 0 0 0 0 0 0 0 0 0 0 0 0 0 0 0 0 0 0 0 0 0 0 0 0 0 0
0 0 0 0 0 0 0 0 0 0 0 0 0 0 0 0 0 0 0 0 0 0 0 0 0 0 0 0 0 0 0 0 0 0 0 0 0 0 0 0 0 0 0 0 0 0 0
0 0 0 0 0 0 0 0 0 0 0 0 0 0 0 0 0 0 0 0 0 0 0 0 0 0 0 0 0 0 0 0 0 0 0 0 0 0 0 0 0 0 0 0 0 0 0
0 0 0 0 0 0 0 0 0 0 0 0 0 0 0 0 0 0 0 0 0 0 0 0 0 0 0 0 0 0 0 0 0 0 0 0 0 0 0 0 0 0 0 0 0 0 0
0 0 0 0 0 0 -0 0 0 0 0 0 0 0 0 0 0 0 0 0 0 0 0 0 0 0 0 0 0 0 0 0 0 0 0 0 0 0 0 0 0 0 0 0 0 0 0
0 0 0 0 0 0 -0 0 0 0 0 0 0 0 0 0 0 0 0 0 0 0 0 0 0 0 0 0 0 0 0 0 0 0 0 0 0 0 0 0 0 0 0 0 0 0 0
0 0 0 0 0 0 -0 0 0 0 0 0 0 0 0 0 0 0 0 0 0 0 0 0 0 0 0 0 0 0 0 0 0 0 0 0 0 0 0 0 0 0 0 0 0 0 0
-0 0 0 0 0 0 -0 0 0 0 0 0 0 0 0 0 0 0 0 0 0 0 0 0 0 0 0 0 0 0 0 0 0 0 0 0 0 0 0 0 0 0 0 0 0 0 0
-0 0 0 0 0 0 -0 0 0 0 0 0 0 0 0 0 0 0 0 0 0 0 0 0 0 0 0 0 0 0 0 0 0 0 0 0 0 0 0 0 0 0 0 0 0 0 0
0 0 0 0 0 0 -0 0 0 0 0 0 0 0 0 0 0 0 0 0 0 0 0 0 0 0 0 0 0 0 0 0 0 0 0 0 0 0 0 0 0 0 0 0 0 0 0
-0 0 0 0 0 0 0 0 0 0 0 0 0 0 0 0 0 0 0 0 0 0 0 0 0 0 0 0 0 0 0 0 0 0 0 0 0 0 0 0 0 0 0 0 0 0 0
0 0 0 0 0 0 0 0 0 0 0 0 0 0 0 0 0 0 0 0 0 0 0 0 0 0 0 0 0 0 0 0 0 0 0 0 0 0 0 0 0 0 0 0 0 0 0
0 0 0 0 0 0 0 0 0 0 0 0 0 0 0 0 0 0 0 0 0 0 0 0 0 0 0 0 0 0 0 0 0 0 0 0 0 0 0 0 0 0 0 0 0 0 0
0 0 0 0 0 0 0 0 0 0 0 0 0 0 0 0 0 0 0 0 0 0 0 0 0 0 0 0 0 0 0 0 0 0 0 0 0 0 0 0 0 0 0 0 0 0 0
0 0 0 0 1 1 0 0 0 0 0 0 0 0 0 0 0 0 0 0 0 0 0 0 -0 0 0 0 0 0 0 0 0 0 0 0 0 0 0 0 0 0 0 0 0 0 0
0 0 0 0 0 0 0 0 0 0 0 0 0 0 0 0 0 0 0 0 0 0 0 0 -0 -0 0 0 0 0 0 0 0 0 0 0 0 0 0 0 0 0 0 0 0 0 0
-0 -0 0 0 0 0 0 0 0 0 0 0 0 0 0 0 0 0 0 0 0 0 0 -0 -0 -0 -0 0 0 0 0 0 0 0 0 0 0 0 0 0 0 0 0 0 0 0 0
0 0 0 0 0 0 0 0 0 0 0 0 0 0 0 0 0 0 0 0 0 0 -0 -0 -0 -0 -0 0 0 0 0 0 0 0 0 0 0 0 0 0 0 0 0 0 0 0 0
0 0 0 0 0 0 0 0 0 0 0 0 0 0 0 0 0 0 0 0 0 0 0 0 -0 -0 -0 0 0 0 0 0 0 0 0 0 0 0 0 0 0 0 0 0 0 0 0
0 0 0 0 0 0 0 0 0 0 0 0 0 0 0 0 0 0 0 0 0 0 -0 -0 -0 -0 -0 -0 0 0 0 0 0 0 0 0 0 0 0 0 0 0 0 0 0 0 0
0 0 0 0 0 0 0 0 0 0 0 0 0 0 0 0 0 0 0 0 0 0 0 -0 -0 -0 -0 -0 0 0 0 0 0 0 0 0 0 0 0 0 0 0 0 0 0 0 0
0 0 0 0 0 0 0 0 0 0 0 0 0 0 0 0 0 0 0 0 0 -0 -0 -0 -0 -0 -0 0 0 0 0 0 0 0 0 0 0 0 0 0 0 0 0 0 0 0 0
0 0 0 0 0 0 0 0 0 0 0 0 0 0 0 0 0 0 0 0 0 0 -0 0 0 -0 -0 0 0 0 0 0 0 0 0 0 0 0 0 0 0 0 0 0 0 0 0
0 0 0 0 0 0 0 0 0 0 0 0 0 0 0 0 0 0 0 0 0 0 -0 0 -0 -0 0 0 0 0 0 0 0 0 0 0 0 0 0 0 0 0 0 0 0 0 0
0 0 0 0 0 0 0 0 0 0 0 0 0 0 0 0 0 0 0 0 0 0 0 0 0 0 0 0 0 0 0 0 0 0 0 0 0 0 0 0 0 0 0 0 0 0 0
0 0 0 0 0 0 0 0 0 0 0 0 0 0 0 0 0 0 0 0 0 0 0 0 0 0 0 0 0 0 0 0 0 0 0 0 0 0 0 0 0 0 0 0 0 0 0
0 0 0 0 0 0 0 0 0 0 0 0 0 0 0 0 0 0 0 0 0 0 0 0 0 0 0 0 0 0 0 0 0 0 0 0 0 0 0 0 0 0 0 0 0 0 0
-0 -0 0 0 0 0 0 0 0 0 0 0 0 0 0 0 0 0 -0 0 0 0 0 0 0 0 0 0 0 0 0 0 0 0 0 0 0 0 0 0 0 0 0 0 0 0 0
Wind_Speed_500mb
84 91 83 95 114 105 96 90 84 85 84 82 78 72 67 60 59 54 58 59 54 52 49 36 61 46 44 46 64 2 34 68 58 56 49 47 50 25 13 15 18 5 10 22 37 27 19
79 90 81 83 89 108 102 98 90 90 88 83 81 75 70 62 59 58 53 52 55 52 48 40 44 55 45 48 57 38 27 62 74 68 59 57 39 39 26 20 17 20 22 14 29 40 24
80 80 78 80 77 93 111 105 97 91 93 87 83 77 71 63 58 60 57 52 51 53 50 41 34 49 53 64 20 76 39 38 78 75 69 64 39 41 26 16 21 11 12 6 19 23 13
68 77 80 78 82 78 90 106 104 93 94 90 83 78 73 65 59 58 57 56 49 50 49 41 32 40 45 49 28 56 66 34 56 65 62 60 35 49 16 11 10 11 7 5 9 22 19
74 78 77 85 76 85 86 118 111 101 97 92 85 81 75 66 64 58 54 55 47 45 45 39 36 36 22 50 59 51 67 70 62 68 62 60 53 28 16 15 5 10 8 10 4 36 8
81 82 79 78 85 77 63 76 113 102 99 95 88 83 75 69 68 60 53 50 39 37 41 37 32 21 48 83 67 69 65 57 74 61 46 43 38 10 14 19 27 12 9 10 14 15 14
86 85 83 79 81 83 86 81 115 103 97 95 91 85 77 70 66 57 52 44 26 25 63 59 29 35 25 41 64 66 71 67 77 63 21 49 22 46 54 35 16 24 16 17 8 13 15
94 96 91 83 81 79 84 91 109 101 97 95 92 86 79 70 64 57 58 66 63 10 25 76 56 59 49 47 38 64 82 48 40 35 31 16 44 40 21 21 24 18 19 21 9 10 21
95 96 94 87 80 80 78 79 96 97 98 95 91 86 75 66 60 61 75 72 38 30 9 30 88 48 36 43 42 69 80 53 52 44 48 45 33 29 33 32 34 21 28 13 7 4 8
97 90 87 88 83 81 82 86 103 101 98 93 91 83 73 65 65 65 63 67 48 56 3 11 21 45 46 52 22 55 101 63 20 50 53 32 19 44 37 38 33 38 16 17 11 14 10
72 89 87 87 87 83 78 105 123 103 99 96 92 81 76 81 64 72 62 72 56 28 6 15 20 27 55 47 28 48 83 77 25 34 21 38 57 52 50 62 31 14 18 14 10 12 5
68 76 80 80 80 82 82 81 106 102 101 95 87 85 85 66 54 70 58 57 52 13 21 12 21 32 44 49 37 22 66 57 56 30 46 19 44 22 34 16 35 17 15 12 8 5 7
55 63 66 75 75 87 80 93 102 104 100 91 87 92 80 67 64 61 56 60 17 20 3 13 15 30 57 55 49 38 69 62 20 27 41 13 27 22 29 23 10 12 17 4 5 6 12
46 57 64 68 74 88 73 109 109 106 96 90 86 84 80 62 67 69 76 11 9 11 17 5 2 31 54 40 49 32 50 58 38 35 37 38 27 38 33 34 28 51 28 12 22 11 8
45 51 62 64 77 92 110 113 108 103 96 90 90 89 83 67 65 57 38 11 16 11 12 2 8 22 36 43 12 60 62 57 45 46 30 33 16 18 42 13 30 21 23 14 13 3 6
48 51 63 72 107 108 109 107 107 102 97 100 90 73 76 74 66 59 8 16 10 10 10 8 6 23 28 53 42 61 47 57 36 51 21 12 17 28 13 18 4 23 17 8 1 13 8
67 75 85 89 92 100 101 108 106 107 103 101 82 24 67 65 56 23 8 13 9 19 17 11 13 9 15 19 61 37 28 46 51 52 14 26 15 9 21 17 28 15 19 12 11 7 11
58 68 77 82 88 97 103 105 103 109 103 92 34 8 68 66 9 5 8 13 14 13 20 6 8 13 19 16 26 53 19 21 86 58 41 16 13 18 36 9 8 5 22 22 17 14 8
55 60 71 72 78 90 83 97 101 100 88 62 22 24 57 58 9 11 5 7 13 16 17 18 19 19 11 15 24 38 40 23 69 57 47 20 11 22 6 1 8 19 16 37 9 8 15
42 50 56 67 77 81 92 96 94 91 78 62 31 10 18 32 8 12 10 7 7 22 16 15 11 13 7 26 27 34 45 18 61 64 36 21 10 26 42 67 29 31 44 51 40 21 15
33 47 51 63 69 69 79 83 83 86 73 56 12 7 21 16 23 15 10 10 12 12 17 28 13 32 23 16 34 24 39 10 48 51 15 11 11 9 5 11 22 35 38 37 42 40 28
30 39 48 59 68 72 74 73 78 92 70 27 18 13 15 5 23 30 14 11 17 6 8 17 33 25 31 31 28 20 35 21 52 26 31 7 12 9 3 20 32 38 36 41 31 31 31
20 32 42 50 58 69 67 73 77 91 58 15 15 23 29 18 17 23 19 11 14 13 23 38 22 26 27 54 52 56 63 42 48 60 54 32 17 23 13 10 20 6 50 53 54 46 55
15 33 46 55 59 65 70 68 75 85 47 18 19 23 10 8 16 14 10 18 24 23 16 16 14 26 13 50 54 61 8 5 50 42 35 19 14 7 6 16 17 14 29 46 57 56 54
13 29 56 61 65 63 63 62 67 73 57 19 19 7 7 5 7 4 9 7 10 25 20 29 43 47 42 47 10 22 6 4 9 16 43 27 10 10 13 20 7 14 15 48 36 52 36
9 45 59 67 62 59 53 56 57 62 63 37 11 9 6 9 9 8 8 17 14 8 11 14 41 38 38 11 6 11 11 12 12 9 12 17 15 13 8 11 26 15 15 37 12 32 50
19 53 61 66 72 55 50 51 48 49 49 45 24 12 6 9 8 11 6 4 10 8 9 5 10 11 32 9 6 6 6 9 18 28 25 19 13 19 17 9 15 13 12 65 27 35 43
41 56 68 68 62 54 45 40 36 34 33 32 32 27 20 7 8 14 11 8 10 11 5 7 8 8 2 9 7 7 6 8 8 19 34 20 26 13 7 4 30 24 50 46 32 14 13
62 65 67 61 55 47 41 35 29 26 26 26 25 29 19 5 7 8 1 11 13 18 13 10 9 4 8 4 5 7 6 6 12 16 9 9 22 23 30 19 4 76 16 50 28 22 12
Wind_Direction_500mb
258 252 250 250 236 232 231 229 226 225 225 223 223 220 218 214 213 213 216 218 219 220 219 215 206 201 221 204 217 240 208 210 206 206 198 191 179 159 162 175 142 216 202 225 251 277 310
259 252 255 252 247 228 228 227 226 223 224 221 220 219 217 215 215 212 212 215 213 220 221 216 213 208 215 236 223 195 175 190 206 202 198 198 196 182 177 171 176 208 191 195 252 273 256
256 257 253 252 255 228 227 225 223 223 222 219 217 216 217 215 214 210 209 214 214 217 220 216 210 216 219 229 217 216 220 196 200 203 199 197 214 187 163 151 209 166 151 166 223 240 269
257 254 253 252 247 241 223 223 223 221 218 216 214 213 212 212 212 207 206 210 214 216 216 213 207 207 233 236 212 205 210 204 211 206 204 196 195 200 190 141 123 137 125 155 206 190 251
255 251 251 245 247 244 238 221 222 222 215 213 211 210 208 211 209 204 205 208 211 217 214 206 205 204 239 228 211 210 204 197 204 201 202 201 203 199 175 128 119 203 169 187 256 197 161
253 249 246 243 241 240 246 231 219 220 212 212 208 207 206 208 207 206 205 205 207 210 207 206 209 195 233 218 212 212 204 192 196 185 182 194 201 155 199 180 205 166 160 211 200 203 190
248 243 241 240 240 235 234 225 211 216 210 208 205 202 202 203 202 202 198 185 184 207 203 195 200 205 28 202 197 205 200 185 195 175 173 183 194 206 203 202 186 163 180 223 238 189 170
239 246 239 234 232 230 229 230 203 210 206 203 201 198 199 198 200 199 195 189 194 191 199 216 225 227 236 188 187 201 195 173 182 179 159 161 213 206 179 190 195 174 186 212 256 168 193
240 236 230 227 226 224 221 220 203 204 199 199 199 195 194 194 194 194 197 194 198 194 198 217 228 230 212 212 209 196 186 185 182 183 183 189 215 184 189 195 205 206 204 189 218 123 225
233 223 221 222 220 218 215 226 199 198 194 195 194 193 189 183 181 185 189 195 197 200 243 235 201 220 204 203 220 199 195 193 189 189 184 213 193 184 191 200 191 207 167 182 153 153 233
215 211 214 213 215 211 213 219 186 191 190 192 190 188 179 180 171 180 188 188 192 186 225 196 173 185 179 193 163 210 199 190 195 167 164 198 190 188 195 204 187 221 153 169 147 161 343
196 200 205 210 207 205 206 219 183 182 185 188 185 177 172 169 178 183 183 159 157 179 231 180 147 168 173 199 205 176 200 203 205 188 193 171 194 188 200 174 183 145 99 65 65 124 238
189 196 201 206 203 202 207 194 180 177 183 182 180 176 176 167 158 167 163 161 179 206 191 192 187 176 183 194 206 192 189 201 173 174 181 168 180 178 161 164 152 142 149 136 218 189 228
202 200 204 203 203 201 189 174 174 176 176 173 170 172 171 164 160 152 153 130 174 228 208 139 321 182 191 179 211 207 210 192 194 182 168 178 182 174 185 186 183 188 176 169 187 189 163
208 203 196 199 211 196 168 167 169 170 167 163 159 164 166 162 166 165 154 194 202 208 140 195 133 222 194 203 181 198 217 196 187 174 167 176 209 167 174 163 159 179 200 171 106 52 94
189 193 189 168 151 159 165 163 166 162 161 159 146 144 145 151 156 161 111 223 192 146 136 100 219 224 198 197 195 186 213 186 184 187 154 177 166 189 177 133 248 180 140 131 359 153 225
129 129 139 143 150 159 162 162 162 157 159 159 139 116 149 158 149 148 171 220 189 195 160 160 180 272 230 199 198 183 215 175 182 186 160 149 147 178 163 208 175 158 179 199 124 173 173
122 132 141 152 154 158 164 159 157 160 158 152 131 121 154 149 133 177 172 181 183 161 179 179 213 220 257 261 214 195 203 208 184 174 171 192 150 161 203 350 234 222 192 177 193 211 222
117 127 135 146 150 156 157 159 160 164 163 140 102 101 160 165 165 197 244 191 173 177 188 188 206 194 240 239 212 198 177 238 191 176 170 178 143 153 186 19 343 217 203 199 116 95 201
113 123 134 140 150 156 156 160 164 165 152 144 129 134 161 199 235 150 145 217 200 208 224 194 221 204 258 282 220 201 183 198 185 185 153 116 150 186 198 206 174 188 198 198 194 202 190
115 134 139 143 152 157 162 161 161 154 157 147 116 166 160 185 208 199 144 182 163 201 219 206 226 211 198 265 215 208 183 135 177 177 152 119 136 159 48 152 158 196 200 203 205 212 199
113 138 145 150 151 156 156 162 165 164 161 153 128 146 172 156 145 192 191 229 183 225 202 224 232 197 207 232 249 197 169 168 182 180 181 196 173 115 31 160 159 176 184 198 212 214 237
140 147 153 157 158 153 162 167 168 170 170 134 129 145 152 157 159 181 208 195 190 185 233 236 248 236 245 238 227 209 195 170 181 179 188 182 141 163 194 152 117 160 194 193 207 211 215
158 165 165 167 158 162 169 170 172 177 174 147 136 142 122 175 183 200 188 188 227 207 243 265 276 243 255 246 242 192 135 166 169 185 187 156 115 90 141 117 191 229 195 206 207 213 222
123 171 174 175 169 165 169 174 176 185 188 155 152 134 133 134 171 169 233 226 252 248 236 255 254 247 245 277 172 151 138 76 167 161 175 177 120 103 153 202 285 264 217 197 192 231 226
128 152 162 163 161 168 167 171 176 187 195 195 194 181 116 116 211 131 196 225 239 242 255 240 259 251 232 229 167 162 164 126 146 103 354 109 114 126 146 159 209 238 178 188 156 256 221
123 163 165 168 160 162 165 171 181 189 198 209 216 229 196 130 177 186 188 228 213 234 269 291 287 223 222 192 142 138 120 165 154 152 161 149 149 174 175 194 270 231 169 138 152 238 224
138 134 142 145 150 151 153 160 173 185 197 208 215 220 208 170 162 215 225 242 257 240 254 335 262 211 276 183 154 149 134 182 104 147 167 164 160 175 127 125 250 164 154 168 211 133 147
116 130 124 128 134 137 141 146 156 168 179 187 193 199 206 192 128 123 125 277 267 270 276 268 280 257 244 159 182 119 131 132 155 164 215 156 190 172 192 204 175 174 168 196 172 174 197
Wind_Speed_850mb
84 91 83 95 114 105 96 90 84 85 84 82 78 72 67 60 59 54 58 59 54 52 49 36 61 46 44 46 64 2 34 68 58 56 49 47 50 25 13 15 18 5 10 22 37 27 19
79 90 81 83 89 108 102 98 90 90 88 83 81 75 70 62 59 58 53 52 55 52 48 40 44 55 45 48 57 38 27 62 74 68 59 57 39 39 26 20 17 20 22 14 29 40 24
80 80 78 80 77 93 111 105 97 91 93 87 83 77 71 63 58 60 57 52 51 53 50 41 34 49 53 64 20 76 39 38 78 75 69 64 39 41 26 16 21 11 12 6 19 23 13
68 77 80 78 82 78 90 106 104 93 94 90 83 78 73 65 59 58 57 56 49 50 49 41 32 40 45 49 28 56 66 34 56 65 62 60 35 49 16 11 10 11 7 5 9 22 19
74 78 77 85 76 85 86 118 111 101 97 92 85 81 75 66 64 58 54 55 47 45 45 39 36 36 22 50 59 51 67 70 62 68 62 60 53 28 16 15 5 10 8 10 4 36 8
81 82 79 78 85 77 63 76 113 102 99 95 88 83 75 69 68 60 53 50 39 37 41 37 32 21 48 83 67 69 65 57 74 61 46 43 38 10 14 19 27 12 9 10 14 15 14
86 85 83 79 81 83 86 81 115 103 97 95 91 85 77 70 66 57 52 44 26 25 63 59 29 35 25 41 64 66 71 67 77 63 21 49 22 46 54 35 16 24 16 17 8 13 15
94 96 91 83 81 79 84 91 109 101 97 95 92 86 79 70 64 57 58 66 63 10 25 76 56 59 49 47 38 64 82 48 40 35 31 16 44 40 21 21 24 18 19 21 9 10 21
95 96 94 87 80 80 78 79 96 97 98 95 91 86 75 66 60 61 75 72 38 30 9 30 88 48 36 43 42 69 80 53 52 44 48 45 33 29 33 32 34 21 28 13 7 4 8
97 90 87 88 83 81 82 86 103 101 98 93 91 83 73 65 65 65 63 67 48 56 3 11 21 45 46 52 22 55 101 63 20 50 53 32 19 44 37 38 33 38 16 17 11 14 10
72 89 87 87 87 83 78 105 123 103 99 96 92 81 76 81 64 72 62 72 56 28 6 15 20 27 55 47 28 48 83 77 25 34 21 38 57 52 50 62 31 14 18 14 10 12 5
68 76 80 80 80 82 82 81 106 102 101 95 87 85 85 66 54 70 58 57 52 13 21 12 21 32 44 49 37 22 66 57 56 30 46 19 44 22 34 16 35 17 15 12 8 5 7
55 63 66 75 75 87 80 93 102 104 100 91 87 92 80 67 64 61 56 60 17 20 3 13 15 30 57 55 49 38 69 62 20 27 41 13 27 22 29 23 10 12 17 4 5 6 12
46 57 64 68 74 88 73 109 109 106 96 90 86 84 80 62 67 69 76 11 9 11 17 5 2 31 54 40 49 32 50 58 38 35 37 38 27 38 33 34 28 51 28 12 22 11 8
45 51 62 64 77 92 110 113 108 103 96 90 90 89 83 67 65 57 38 11 16 11 12 2 8 22 36 43 12 60 62 57 45 46 30 33 16 18 42 13 30 21 23 14 13 3 6
48 51 63 72 107 108 109 107 107 102 97 100 90 73 76 74 66 59 8 16 10 10 10 8 6 23 28 53 42 61 47 57 36 51 21 12 17 28 13 18 4 23 17 8 1 13 8
67 75 85 89 92 100 101 108 106 107 103 101 82 24 67 65 56 23 8 13 9 19 17 11 13 9 15 19 61 37 28 46 51 52 14 26 15 9 21 17 28 15 19 12 11 7 11
58 68 77 82 88 97 103 105 103 109 103 92 34 8 68 66 9 5 8 13 14 13 20 6 8 13 19 16 26 53 19 21 86 58 41 16 13 18 36 9 8 5 22 22 17 14 8
55 60 71 72 78 90 83 97 101 100 88 62 22 24 57 58 9 11 5 7 13 16 17 18 19 19 11 15 24 38 40 23 69 57 47 20 11 22 6 1 8 19 16 37 9 8 15
42 50 56 67 77 81 92 96 94 91 78 62 31 10 18 32 8 12 10 7 7 22 16 15 11 13 7 26 27 34 45 18 61 64 36 21 10 26 42 67 29 31 44 51 40 21 15
33 47 51 63 69 69 79 83 83 86 73 56 12 7 21 16 23 15 10 10 12 12 17 28 13 32 23 16 34 24 39 10 48 51 15 11 11 9 5 11 22 35 38 37 42 40 28
30 39 48 59 68 72 74 73 78 92 70 27 18 13 15 5 23 30 14 11 17 6 8 17 33 25 31 31 28 20 35 21 52 26 31 7 12 9 3 20 32 38 36 41 31 31 31
20 32 42 50 58 69 67 73 77 91 58 15 15 23 29 18 17 23 19 11 14 13 23 38 22 26 27 54 52 56 63 42 48 60 54 32 17 23 13 10 20 6 50 53 54 46 55
15 33 46 55 59 65 70 68 75 85 47 18 19 23 10 8 16 14 10 18 24 23 16 16 14 26 13 50 54 61 8 5 50 42 35 19 14 7 6 16 17 14 29 46 57 56 54
13 29 56 61 65 63 63 62 67 73 57 19 19 7 7 5 7 4 9 7 10 25 20 29 43 47 42 47 10 22 6 4 9 16 43 27 10 10 13 20 7 14 15 48 36 52 36
9 45 59 67 62 59 53 56 57 62 63 37 11 9 6 9 9 8 8 17 14 8 11 14 41 38 38 11 6 11 11 12 12 9 12 17 15 13 8 11 26 15 15 37 12 32 50
19 53 61 66 72 55 50 51 48 49 49 45 24 12 6 9 8 11 6 4 10 8 9 5 10 11 32 9 6 6 6 9 18 28 25 19 13 19 17 9 15 13 12 65 27 35 43
41 56 68 68 62 54 45 40 36 34 33 32 32 27 20 7 8 14 11 8 10 11 5 7 8 8 2 9 7 7 6 8 8 19 34 20 26 13 7 4 30 24 50 46 32 14 13
62 65 67 61 55 47 41 35 29 26 26 26 25 29 19 5 7 8 1 11 13 18 13 10 9 4 8 4 5 7 6 6 12 16 9 9 22 23 30 19 4 76 16 50 28 22 12
Wind_Direction_850mb
258 252 250 250 236 232 231 229 226 225 225 223 223 220 218 214 213 213 216 218 219 220 219 215 206 201 221 204 217 240 208 210 206 206 198 191 179 159 162 175 142 216 202 225 251 277 310
259 252 255 252 247 228 228 227 226 223 224 221 220 219 217 215 215 212 212 215 213 220 221 216 213 208 215 236 223 195 175 190 206 202 198 198 196 182 177 171 176 208 191 195 252 273 256
256 257 253 252 255 228 227 225 223 223 222 219 217 216 217 215 214 210 209 214 214 217 220 216 210 216 219 229 217 216 220 196 200 203 199 197 214 187 163 151 209 166 151 166 223 240 269
257 254 253 252 247 241 223 223 223 221 218 216 214 213 212 212 212 207 206 210 214 216 216 213 207 207 233 236 212 205 210 204 211 206 204 196 195 200 190 141 123 137 125 155 206 190 251
255 251 251 245 247 244 238 221 222 222 215 213 211 210 208 211 209 204 205 208 211 217 214 206 205 204 239 228 211 210 204 197 204 201 202 201 203 199 175 128 119 203 169 187 256 197 161
253 249 246 243 241 240 246 231 219 220 212 212 208 207 206 208 207 206 205 205 207 210 207 206 209 195 233 218 212 212 204 192 196 185 182 194 201 155 199 180 205 166 160 211 200 203 190
248 243 241 240 240 235 234 225 211 216 210 208 205 202 202 203 202 202 198 185 184 207 203 195 200 205 28 202 197 205 200 185 195 175 173 183 194 206 203 202 186 163 180 223 238 189 170
239 246 239 234 232 230 229 230 203 210 206 203 201 198 199 198 200 199 195 189 194 191 199 216 225 227 236 188 187 201 195 173 182 179 159 161 213 206 179 190 195 174 186 212 256 168 193
240 236 230 227 226 224 221 220 203 204 199 199 199 195 194 194 194 194 197 194 198 194 198 217 228 230 212 212 209 196 186 185 182 183 183 189 215 184 189 195 205 206 204 189 218 123 225
233 223 221 222 220 218 215 226 199 198 194 195 194 193 189 183 181 185 189 195 197 200 243 235 201 220 204 203 220 199 195 193 189 189 184 213 193 184 191 200 191 207 167 182 153 153 233
215 211 214 213 215 211 213 219 186 191 190 192 190 188 179 180 171 180 188 188 192 186 225 196 173 185 179 193 163 210 199 190 195 167 164 198 190 188 195 204 187 221 153 169 147 161 343
196 200 205 210 207 205 206 219 183 182 185 188 185 177 172 169 178 183 183 159 157 179 231 180 147 168 173 199 205 176 200 203 205 188 193 171 194 188 200 174 183 145 99 65 65 124 238
189 196 201 206 203 202 207 194 180 177 183 182 180 176 176 167 158 167 163 161 179 206 191 192 187 176 183 194 206 192 189 201 173 174 181 168 180 178 161 164 152 142 149 136 218 189 228
202 200 204 203 203 201 189 174 174 176 176 173 170 172 171 164 160 152 153 130 174 228 208 139 321 182 191 179 211 207 210 192 194 182 168 178 182 174 185 186 183 188 176 169 187 189 163
208 203 196 199 211 196 168 167 169 170 167 163 159 164 166 162 166 165 154 194 202 208 140 195 133 222 194 203 181 198 217 196 187 174 167 176 209 167 174 163 159 179 200 171 106 52 94
189 193 189 168 151 159 165 163 166 162 161 159 146 144 145 151 156 161 111 223 192 146 136 100 219 224 198 197 195 186 213 186 184 187 154 177 166 189 177 133 248 180 140 131 359 153 225
129 129 139 143 150 159 162 162 162 157 159 159 139 116 149 158 149 148 171 220 189 195 160 160 180 272 230 199 198 183 215 175 182 186 160 149 147 178 163 208 175 158 179 199 124 173 173
122 132 141 152 154 158 164 159 157 160 158 152 131 121 154 149 133 177 172 181 183 161 179 179 213 220 257 261 214 195 203 208 184 174 171 192 150 161 203 350 234 222 192 177 193 211 222
117 127 135 146 150 156 157 159 160 164 163 140 102 101 160 165 165 197 244 191 173 177 188 188 206 194 240 239 212 198 177 238 191 176 170 178 143 153 186 19 343 217 203 199 116 95 201
113 123 134 140 150 156 156 160 164 165 152 144 129 134 161 199 235 150 145 217 200 208 224 194 221 204 258 282 220 201 183 198 185 185 153 116 150 186 198 206 174 188 198 198 194 202 190
115 134 139 143 152 157 162 161 161 154 157 147 116 166 160 185 208 199 144 182 163 201 219 206 226 211 198 265 215 208 183 135 177 177 152 119 136 159 48 152 158 196 200 203 205 212 199
113 138 145 150 151 156 156 162 165 164 161 153 128 146 172 156 145 192 191 229 183 225 202 224 232 197 207 232 249 197 169 168 182 180 181 196 173 115 31 160 159 176 184 198 212 214 237
140 147 153 157 158 153 162 167 168 170 170 134 129 145 152 157 159 181 208 195 190 185 233 236 248 236 245 238 227 209 195 170 181 179 188 182 141 163 194 152 117 160 194 193 207 211 215
158 165 165 167 158 162 169 170 172 177 174 147 136 142 122 175 183 200 188 188 227 207 243 265 276 243 255 246 242 192 135 166 169 185 187 156 115 90 141 117 191 229 195 206 207 213 222
123 171 174 175 169 165 169 174 176 185 188 155 152 134 133 134 171 169 233 226 252 248 236 255 254 247 245 277 172 151 138 76 167 161 175 177 120 103 153 202 285 264 217 197 192 231 226
128 152 162 163 161 168 167 171 176 187 195 195 194 181 116 116 211 131 196 225 239 242 255 240 259 251 232 229 167 162 164 126 146 103 354 109 114 126 146 159 209 238 178 188 156 256 221
123 163 165 168 160 162 165 171 181 189 198 209 216 229 196 130 177 186 188 228 213 234 269 291 287 223 222 192 142 138 120 165 154 152 161 149 149 174 175 194 270 231 169 138 152 238 224
138 134 142 145 150 151 153 160 173 185 197 208 215 220 208 170 162 215 225 242 257 240 254 335 262 211 276 183 154 149 134 182 104 147 167 164 160 175 127 125 250 164 154 168 211 133 147
116 130 124 128 134 137 141 146 156 168 179 187 193 199 206 192 128 123 125 277 267 270 276 268 280 257 244 159 182 119 131 132 155 164 215 156 190 172 192 204 175 174 168 196 172 174 197